Flag for Laos Weather past 2 weeks in Vientiane, Laos

Now
73 °F

Fog.


Feels Like: 77 °F
Forecast: 54 / 80 °F
Wind: 2 mph from Northwest

Location: Vientiane Airport

Current Time: Dec 19, 2014 at 8:09:13 PM

Latest Report: Dec 19, 2014 at 7:30 PM


Visibility: 2 mi

Pressure: 30.01 "Hg

Humidity: 47%

Dew point: 52 °F

Location of VientianeLocation

Historic Weather in Vientiane — Graph

°F

Vientiane temperature yesterday

Maximum temperature yesterday: 79 °F (at 3:00 PM)
Minimum temperature yesterday: 61 °F (at 6:00 AM)
Average temperature yesterday: 70 °F

Past Weeks' High & Low Weather Summary

 TemperatureHumidityPressure
High91 °F (Dec 11, 3:30 PM)94% (Dec 7, 6:00 AM)30.21 "Hg (Dec 7, 6:00 AM)
Low61 °F (Dec 13, 6:00 AM)30% (Dec 18, 3:00 PM)29.80 "Hg (Dec 7, 3:30 PM)
Average75 °F65%30.01 "Hg
* Reported Dec 4 7:00 PM — Dec 19 7:00 PM, Vientiane, Weather by CustomWeather, © 2014

Note: Actual official high and low records may vary slightly from our data, if they occured in-between our weather recording intervals... More about our weather records

Advertising

Vientiane weather history for previous 24 hours

 ConditionsComfort  
Time TempWeatherWind HumidityBarometerVisibility
7:00 PM
Dec 19
73 °FFog.2 mph47%30.01 "Hg2 mi
6:30 PM77 °FFog.2 mph44%30.01 "Hg2 mi
6:00 PM79 °FFog.2 mph42%29.98 "Hg3 mi
5:30 PM81 °FClear.2 mph39%29.98 "Hg4 mi
4:00 PM82 °FPassing clouds.2 mph37%29.98 "HgN/A
3:30 PM82 °FPassing clouds.2 mph42%30.01 "HgN/A
3:00 PM82 °FPassing clouds.2 mph42%30.01 "HgN/A
2:30 PM79 °FPassing clouds.5 mph48%30.04 "HgN/A
2:00 PM79 °FPassing clouds.5 mph48%30.04 "HgN/A
1:30 PM77 °FClear.2 mph54%30.07 "Hg5 mi
1:00 PM77 °FClear.2 mph54%30.07 "Hg5 mi
12:30 PM73 °FPassing clouds.5 mph69%30.09 "Hg5 mi
12:00 PM73 °FPassing clouds.5 mph69%30.09 "Hg5 mi
11:30 AM73 °FPassing clouds.5 mph47%30.12 "Hg5 mi
11:00 AM73 °FPassing clouds.5 mph47%30.12 "Hg5 mi
10:30 AM70 °FScattered clouds.2 mph53%30.12 "Hg5 mi
10:00 AM70 °FScattered clouds.2 mph53%30.12 "Hg5 mi
9:30 AM66 °FScattered clouds.2 mph60%30.15 "Hg4 mi
9:00 AM66 °FScattered clouds.2 mph60%30.15 "Hg4 mi
8:30 AM63 °FPassing clouds.2 mph73%30.12 "Hg4 mi
8:00 AM63 °FPassing clouds.2 mph73%30.12 "Hg4 mi
7:30 AM63 °FFog.2 mph77%30.09 "Hg3 mi
7:00 AM63 °FFog.2 mph77%30.09 "Hg3 mi
6:00 AM63 °FFog.2 mph68%30.09 "Hg2 mi
10:00 PM
Dec 18
68 °FFog.7 mph53%30.15 "Hg2 mi
8:00 PM70 °FFog.2 mph43%30.12 "Hg2 mi
Weather by CustomWeather, © 2014

See weather overviewHow to use our weather pages